When you browse on this site, cookies collect data to enhance your experience and personalize the content and advertising you see.
Visit our Privacy Policy to learn more. By continuing to use the site, you agree to this use of cookies and data.
  • In Schweiz
  • Länderverzeichnis
  • Für 7 Tage
  • Wassertemperatur
  • Wetterkarte
  • Widgets
  • user-avatar
    Anmelden

    Stündliche Wetter Aracaju

    Heute, 8 April, Mittwoch

    Zeit Temperatur Niederschläge Wind Luftdruck Luftfeuchtigkeit
    00:00 +28°C° 0 mm 3 m/S 758 mmHg 80%
    01:00 +28°C° 0 mm 3 m/S 758 mmHg 81%
    02:00 +27°C° 0 mm 2 m/S 758 mmHg 82%
    03:00 +27°C° 0 mm 2 m/S 758 mmHg 83%
    04:00 +27°C° 0 mm 2 m/S 758 mmHg 83%
    05:00 +27°C° 0 mm 2 m/S 758 mmHg 83%
    06:00 +27°C° 0 mm 2 m/S 758 mmHg 82%
    07:00 +27°C° 0 mm 2 m/S 757 mmHg 81%
    08:00 +29°C° 0 mm 2 m/S 758 mmHg 75%
    09:00 +30°C° 0 mm 2 m/S 758 mmHg 70%
    10:00 +31°C° 0 mm 3 m/S 758 mmHg 64%
    11:00 +33°C° 0 mm 3 m/S 758 mmHg 62%
    12:00 +33°C° 0 mm 3 m/S 757 mmHg 60%
    13:00 +34°C° 0 mm 3 m/S 757 mmHg 58%
    14:00 +33°C° 0 mm 3 m/S 756 mmHg 59%
    15:00 +33°C° 0 mm 3 m/S 756 mmHg 59%
    16:00 +33°C° 0 mm 4 m/S 755 mmHg 60%
    17:00 +31°C° 0 mm 3 m/S 755 mmHg 64%
    18:00 +30°C° 0 mm 3 m/S 755 mmHg 69%
    19:00 +29°C° 0 mm 3 m/S 756 mmHg 73%
    20:00 +28°C° 0 mm 3 m/S 756 mmHg 75%
    21:00 +28°C° 0 mm 3 m/S 757 mmHg 77%
    22:00 +28°C° 0 mm 3 m/S 758 mmHg 79%
    23:00 +28°C° 0 mm 3 m/S 758 mmHg 80%

    Morgen, 9 April, Donnerstag

    Zeit Temperatur Niederschläge Wind Luftdruck Luftfeuchtigkeit
    00:00 +27°C° 0 mm 3 m/S 757 mmHg 81%
    01:00 +27°C° 0 mm 3 m/S 757 mmHg 82%
    02:00 +27°C° 0 mm 3 m/S 757 mmHg 83%
    03:00 +27°C° 0 mm 2 m/S 757 mmHg 84%
    04:00 +27°C° 0 mm 2 m/S 756 mmHg 86%
    05:00 +27°C° 0 mm 2 m/S 756 mmHg 85%
    06:00 +27°C° 0 mm 2 m/S 757 mmHg 85%
    07:00 +27°C° 0 mm 2 m/S 757 mmHg 85%
    08:00 +28°C° 0 mm 2 m/S 757 mmHg 78%
    09:00 +30°C° 0 mm 3 m/S 758 mmHg 72%
    10:00 +31°C° 0 mm 3 m/S 758 mmHg 65%
    11:00 +33°C° 0 mm 3 m/S 758 mmHg 63%
    12:00 +33°C° 0 mm 3 m/S 757 mmHg 61%
    13:00 +34°C° 0 mm 3 m/S 757 mmHg 59%
    14:00 +33°C° 0 mm 4 m/S 756 mmHg 61%
    15:00 +33°C° 0 mm 4 m/S 756 mmHg 62%
    16:00 +33°C° 0 mm 4 m/S 755 mmHg 63%
    17:00 +32°C° 0 mm 4 m/S 755 mmHg 68%
    18:00 +30°C° 0 mm 4 m/S 755 mmHg 72%
    19:00 +29°C° 0 mm 4 m/S 755 mmHg 76%
    20:00 +28°C° 0 mm 4 m/S 756 mmHg 78%
    21:00 +28°C° 0 mm 3 m/S 757 mmHg 80%
    22:00 +28°C° 0 mm 3 m/S 757 mmHg 82%
    23:00 +28°C° 0 mm 3 m/S 757 mmHg 83%

    übermorgen, 10 April, Freitag

    Zeit Temperatur Niederschläge Wind Luftdruck Luftfeuchtigkeit
    00:00 +28°C° 0 mm 3 m/S 757 mmHg 84%
    01:00 +28°C° 0 mm 3 m/S 757 mmHg 85%
    02:00 +27°C° 0 mm 3 m/S 757 mmHg 86%
    03:00 +27°C° 0 mm 3 m/S 756 mmHg 86%
    04:00 +27°C° 0 mm 2 m/S 756 mmHg 87%
    05:00 +27°C° 0 mm 2 m/S 756 mmHg 86%
    06:00 +27°C° 0 mm 2 m/S 757 mmHg 86%
    07:00 +27°C° 0 mm 2 m/S 757 mmHg 86%
    08:00 +29°C° 0 mm 2 m/S 757 mmHg 79%
    09:00 +30°C° 0 mm 3 m/S 758 mmHg 72%
    10:00 +33°C° 0 mm 3 m/S 758 mmHg 66%
    11:00 +33°C° 0 mm 3 m/S 757 mmHg 63%
    12:00 +34°C° 0 mm 3 m/S 757 mmHg 61%
    13:00 +34°C° 0 mm 3 m/S 756 mmHg 58%
    14:00 +34°C° 0 mm 4 m/S 756 mmHg 60%
    15:00 +33°C° 0 mm 4 m/S 755 mmHg 62%
    16:00 +33°C° 0 mm 5 m/S 755 mmHg 63%
    17:00 +32°C° 0 mm 4 m/S 755 mmHg 67%
    18:00 +30°C° 0 mm 4 m/S 755 mmHg 72%
    19:00 +29°C° 0 mm 4 m/S 756 mmHg 76%
    20:00 +29°C° 0 mm 4 m/S 756 mmHg 78%
    21:00 +28°C° 0 mm 4 m/S 757 mmHg 80%
    22:00 +28°C° 0 mm 4 m/S 757 mmHg 83%
    23:00 +28°C° 0 mm 4 m/S 757 mmHg 84%

    11 April, Samstag

    Zeit Temperatur Niederschläge Wind Luftdruck Luftfeuchtigkeit
    00:00 +28°C° 0 mm 3 m/S 757 mmHg 86%
    01:00 +28°C° 0 mm 3 m/S 757 mmHg 87%
    02:00 +27°C° 0 mm 3 m/S 756 mmHg 87%
    03:00 +27°C° 0 mm 3 m/S 756 mmHg 88%
    04:00 +27°C° 0 mm 3 m/S 756 mmHg 88%
    05:00 +27°C° 0 mm 3 m/S 756 mmHg 89%
    06:00 +27°C° 0 mm 3 m/S 756 mmHg 89%
    07:00 +27°C° 0 mm 3 m/S 757 mmHg 90%
    08:00 +28°C° 0.1 mm 3 m/S 757 mmHg 83%
    09:00 +30°C° 0.1 mm 3 m/S 758 mmHg 77%
    10:00 +31°C° 0.1 mm 3 m/S 758 mmHg 70%
    11:00 +33°C° 0 mm 3 m/S 758 mmHg 66%
    12:00 +34°C° 0 mm 3 m/S 757 mmHg 62%
    13:00 +35°C° 0 mm 3 m/S 757 mmHg 59%
    14:00 +34°C° 0.1 mm 4 m/S 756 mmHg 62%
    15:00 +34°C° 0.1 mm 4 m/S 756 mmHg 65%
    16:00 +33°C° 0.1 mm 5 m/S 755 mmHg 68%
    17:00 +32°C° 0 mm 5 m/S 755 mmHg 73%
    18:00 +30°C° 0 mm 4 m/S 756 mmHg 78%
    19:00 +29°C° 0 mm 4 m/S 756 mmHg 83%
    20:00 +29°C° 0.2 mm 4 m/S 756 mmHg 84%
    21:00 +29°C° 0.2 mm 4 m/S 757 mmHg 85%
    22:00 +28°C° 0.2 mm 4 m/S 757 mmHg 87%
    23:00 +28°C° 0 mm 4 m/S 757 mmHg 88%

    12 April, Sonntag

    Zeit Temperatur Niederschläge Wind Luftdruck Luftfeuchtigkeit
    00:00 +28°C° 0 mm 4 m/S 757 mmHg 88%
    01:00 +28°C° 0 mm 3 m/S 757 mmHg 89%
    02:00 +28°C° 0 mm 3 m/S 757 mmHg 89%
    03:00 +27°C° 0 mm 3 m/S 756 mmHg 89%
    04:00 +27°C° 0 mm 3 m/S 756 mmHg 89%
    05:00 +27°C° 0 mm 2 m/S 756 mmHg 89%
    06:00 +27°C° 0 mm 2 m/S 757 mmHg 88%
    07:00 +27°C° 0 mm 2 m/S 757 mmHg 88%
    08:00 +29°C° 0 mm 2 m/S 757 mmHg 82%
    09:00 +30°C° 0 mm 3 m/S 758 mmHg 75%
    10:00 +31°C° 0 mm 3 m/S 758 mmHg 69%
    11:00 +33°C° 0 mm 3 m/S 757 mmHg 66%
    12:00 +34°C° 0 mm 3 m/S 757 mmHg 63%
    13:00 +34°C° 0 mm 4 m/S 756 mmHg 59%
    14:00 +34°C° 0 mm 4 m/S 756 mmHg 61%
    15:00 +33°C° 0 mm 4 m/S 755 mmHg 62%
    16:00 +33°C° 0 mm 5 m/S 754 mmHg 64%
    17:00 +32°C° 0 mm 4 m/S 755 mmHg 68%
    18:00 +30°C° 0 mm 4 m/S 755 mmHg 72%
    19:00 +29°C° 0 mm 4 m/S 756 mmHg 77%
    20:00 +29°C° 0 mm 4 m/S 756 mmHg 80%
    21:00 +28°C° 0 mm 4 m/S 757 mmHg 83%
    22:00 +28°C° 0 mm 4 m/S 757 mmHg 87%
    23:00 +28°C° 0 mm 4 m/S 757 mmHg 87%

    13 April, Montag

    Zeit Temperatur Niederschläge Wind Luftdruck Luftfeuchtigkeit
    00:00 +28°C° 0 mm 4 m/S 757 mmHg 88%
    01:00 +28°C° 0 mm 4 m/S 757 mmHg 89%
    02:00 +27°C° 0 mm 3 m/S 756 mmHg 89%
    03:00 +27°C° 0 mm 3 m/S 756 mmHg 90%
    04:00 +27°C° 0 mm 3 m/S 756 mmHg 90%
    05:00 +27°C° 0 mm 3 m/S 756 mmHg 90%
    06:00 +27°C° 0 mm 2 m/S 756 mmHg 90%
    07:00 +27°C° 0 mm 2 m/S 757 mmHg 90%
    08:00 +28°C° 0 mm 2 m/S 757 mmHg 82%
    09:00 +29°C° 0 mm 2 m/S 758 mmHg 75%
    10:00 +31°C° 0 mm 2 m/S 758 mmHg 67%
    11:00 +32°C° 0 mm 2 m/S 758 mmHg 63%
    12:00 +32°C° 0 mm 2 m/S 757 mmHg 58%
    13:00 +34°C° 0 mm 3 m/S 757 mmHg 54%
    14:00 +34°C° 0 mm 3 m/S 756 mmHg 57%
    15:00 +33°C° 0 mm 4 m/S 756 mmHg 60%
    16:00 +33°C° 0 mm 4 m/S 755 mmHg 63%
    17:00 +32°C° 0.1 mm 4 m/S 755 mmHg 69%
    18:00 +30°C° 0.1 mm 3 m/S 756 mmHg 75%
    19:00 +29°C° 0.1 mm 3 m/S 756 mmHg 80%
    20:00 +28°C° 0.1 mm 2 m/S 756 mmHg 81%
    21:00 +28°C° 0.1 mm 2 m/S 757 mmHg 83%
    22:00 +28°C° 0.1 mm 2 m/S 757 mmHg 84%
    23:00 +28°C° 0.3 mm 2 m/S 757 mmHg 84%
    Mehr zeigen